"Time","Temp","Dewpoint","Humidity","Pressure","Direction","Speed","Gust","Precip","PrecipRate","Solar"
"00:04:56","66","59.7","80","29.94","180","0","0","0.00","0.00","0"
"00:09:59","65.8","59.6","80.3","29.94","180","0","0","0.00","0.00","0"
"00:14:57","65.6","59.6","81","29.94","180","0","0","0.00","0.00","0"
"00:19:56","65.3","59.3","81","29.94","180","0","0","0.00","0.00","0"
"00:24:57","65.1","59.4","81.7","29.94","180","0","0","0.00","0.00","0"
"00:29:58","64.9","59.3","82","29.94","180","0","0","0.00","0.00","0"
"00:34:56","64.8","59.2","82","29.94","180","0","0","0.00","0.00","0"
"00:39:57","64.7","59.1","82","29.94","180","0","0","0.00","0.00","0"
"00:44:59","64.5","59.1","82.6","29.94","180","0","0","0.00","0.00","0"
"00:49:56","64.3","59","83","29.93","180","0","0","0.00","0.00","0"
"00:54:57","64.1","58.8","83","29.93","180","0","1.2","0.00","0.00","0"
"00:59:58","63.9","58.6","83","29.93","180","0","1.2","0.00","0.00","0"
"01:04:57","63.9","58.6","83","29.93","180","0","0","0.00","0.00","0"
"01:09:56","63.9","58.6","83","29.93","180","0","0","0.00","0.00","0"
"01:14:58","63.8","58.5","83","29.93","180","0","0","0.00","0.00","0"
"01:19:59","63.8","58.5","83","29.93","180","0","0","0.00","0.00","0"
"01:24:56","63.7","58.7","83.8","29.93","180","0","0","0.00","0.00","0"
"01:29:57","63.5","58.5","83.6","29.93","180","0","0","0.00","0.00","0"
"01:34:59","63.4","58.2","83.4","29.93","180","0","0","0.00","0.00","0"
"01:39:56","63.2","58.3","84","29.93","180","0","0","0.00","0.00","0"
"01:44:58","63","58.2","84.5","29.93","180","0","0","0.00","0.00","0"
"01:49:59","62.9","58.3","85","29.93","180","0","0","0.00","0.00","0"
"01:54:57","62.7","58.1","85","29.93","180","0","0","0.00","0.00","0"
"01:59:58","62.6","58","85","29.93","180","0","0","0.00","0.00","0"
"02:04:57","62.4","58.1","85.9","29.93","180","0","0","0.00","0.00","0"
"02:09:56","62.2","58","86","29.93","180","0","0","0.00","0.00","0"
"02:14:58","62","57.8","86","29.93","180","0","0","0.00","0.00","0"
"02:19:59","61.9","57.9","86.7","29.93","180","0","0","0.00","0.00","0"
"02:24:57","61.9","58","87","29.93","180","0","1.2","0.00","0.00","0"
"02:29:58","61.9","58","87","29.93","180","0","1.2","0.00","0.00","0"
"02:34:55","61.8","57.9","87","29.93","180","0","0","0.00","0.00","0"
"02:39:57","61.7","57.8","87","29.93","180","0","0","0.00","0.00","0"
"02:44:59","61.6","57.7","87","29.93","180","0","0","0.00","0.00","0"
"02:49:56","61.5","57.6","87","29.92","180","0","0","0.00","0.00","0"
"02:54:57","61.4","57.5","87","29.92","180","0","0","0.00","0.00","0"
"02:59:59","61.3","57.6","87.5","29.93","180","0.4","2.4","0.00","0.00","0"
"03:04:58","61.2","57.4","87.4","29.93","180","1.7","4.8","0.00","0.00","0"
"03:09:57","61.1","57.2","87.3","29.93","28","3.1","4.8","0.00","0.00","0"
"03:14:59","60.9","57","87","29.94","355","0.5","3.5","0.00","0.00","0"
"03:19:56","60.8","57","87.3","29.94","355","0","1.2","0.00","0.00","0"
"03:24:58","60.6","57","88","29.94","355","0","1.2","0.00","0.00","0"
"03:29:59","60.5","56.9","88","29.94","355","0","0","0.00","0.00","0"
"03:34:57","60.3","57","89","29.94","355","0.1","2.4","0.00","0.00","0"
"03:39:58","60.3","57","89","29.94","356","1.5","7.2","0.00","0.00","0"
"03:44:56","60.7","57.2","88.6","29.95","6","1.9","6.9","0.00","0.00","0"
"03:49:57","61.2","57","86.1","29.95","10","0.7","4.6","0.00","0.00","0"
"03:54:58","61.7","56.7","83.4","29.95","357","1","6","0.00","0.00","0"
"03:59:59","62.4","56","79.7","29.95","344","1.1","6","0.00","0.00","0"
"04:04:58","63.1","55.7","76.8","29.95","331","0.4","2.3","0.00","0.00","0"
"04:09:58","63.5","55.4","75.1","29.95","331","1.4","3.6","0.00","0.00","0"
"04:14:59","63.7","55.1","73.6","29.95","331","1","4.8","0.00","0.00","0"
"04:19:58","63.7","54.8","72.8","29.95","332","0.5","2.4","0.00","0.00","0"
"04:24:57","63.7","54.7","72.7","29.95","335","0.9","4.8","0.00","0.00","0"
"04:29:56","63.5","54.7","73","29.95","350","0.7","4.6","0.00","0.00","0"
"04:34:58","63.3","54.5","73","29.95","347","0.3","2.4","0.00","0.00","0"
"04:39:56","63.1","54.4","73.5","29.95","347","0","1.2","0.00","0.00","0"
"04:44:59","62.8","54.5","74.3","29.95","347","0.4","2.4","0.00","0.00","0"
"04:49:57","62.5","54.5","75","29.95","347","0.3","2.4","0.00","0.00","0"
"04:54:58","62.2","54.3","75.2","29.95","347","0.7","3.6","0.00","0.00","0"
"04:59:58","62.2","54.5","76","29.96","346","0.7","3.5","0.00","0.00","0"
"05:04:57","62.2","54.7","76.5","29.96","346","0.2","2.4","0.00","0.00","0"
"05:09:56","62.2","54.9","77","29.96","346","0.9","3.6","0.00","0.00","0"
"05:14:59","62.2","54.9","77","29.97","0","1.1","4.8","0.00","0.00","0"
"05:19:56","62.1","54.8","77","29.97","9","0.7","3.6","0.00","0.00","0"
"05:24:58","62","55.1","77.9","29.97","9","1","2.4","0.00","0.00","0"
"05:29:56","62","55.1","78","29.97","9","1.3","3.6","0.00","0.00","0"
"05:34:58","61.9","55","78","29.97","8","1.7","3.6","0.00","0.00","0"
"05:39:59","61.8","54.7","77.7","29.97","360","1.5","3.6","0.00","0.00","0"
"05:44:58","61.7","54.4","77","29.98","358","1.3","3.6","0.00","0.00","0"
"05:49:59","61.6","54.3","77","29.98","350","0.4","2.4","0.00","0.00","0"
"05:54:57","61.5","54.2","77","29.98","352","0.4","2.4","0.00","0.00","0"
"05:59:59","61.4","54.1","77","29.98","360","0.5","2.4","0.00","0.00","0"
"06:04:58","61.2","54","77","29.98","360","0","0","0.00","0.00","0"
"06:09:57","61","54.1","78","29.98","353","0.1","2.4","0.00","0.00","0"
"06:14:56","60.7","53.9","78.4","30.00","351","0.4","2.3","0.00","0.00","0"
"06:19:57","60.4","54.2","80","30.00","351","0.1","2.4","0.00","0.00","0"
"06:24:56","60.1","53.6","79","30.00","353","0.8","3.6","0.00","0.00","5"
"06:29:57","59.9","53.4","78.9","30.00","355","1.2","3.6","0.00","0.00","7"
"06:34:56","59.9","53","78","30.00","355","1.3","4.8","0.00","0.00","9"
"06:39:58","60","52.8","76.9","30.00","348","1","3.6","0.00","0.00","11"
"06:44:59","60.3","52.7","76","30.02","348","0.3","2.3","0.00","0.00","11"
"06:49:56","60.5","52.7","75.3","30.02","347","0","0","0.00","0.00","12"
"06:54:58","60.7","52.6","74.7","30.02","347","0","0","0.00","0.00","14"
"06:59:58","60.9","52.6","74","30.02","346","0","1.2","0.00","0.00","23"
"07:04:57","61","52.7","74","30.02","346","0","0","0.00","0.00","23"
"07:09:56","61.2","52.6","73.3","30.02","346","0","0","0.00","0.00","49"
"07:14:58","61.4","52.7","73","30.03","346","0","1.2","0.00","0.00","65"
"07:19:58","61.7","53","73.2","30.03","186","0.2","2.4","0.00","0.00","72"
"07:24:56","62.1","53.2","72.7","30.03","188","1.4","3.6","0.00","0.00","58"
"07:29:56","62.6","53.4","71.9","30.03","190","0.6","2.4","0.00","0.00","54"
"07:34:58","63.1","53.8","71.8","30.03","236","1","3.6","0.00","0.00","102"
"07:39:59","63.8","54.2","71","30.03","296","0.2","3.5","0.00","0.00","98"
"07:44:56","64.6","54.6","70.1","30.04","296","0.2","2.4","0.00","0.00","65"
"07:49:57","65.1","55","69.7","30.04","296","0.2","2.3","0.00","0.00","83"
"07:54:59","65.6","55.1","68.8","30.04","296","0.1","1.2","0.00","0.00","151"
"07:59:56","65.8","55.3","69","30.04","314","0.1","2.4","0.00","0.00","121"
"08:04:59","66.1","55.3","68.2","30.04","315","0.9","3.6","0.00","0.00","102"
"08:09:58","66.8","55.2","66.4","30.04","95","2","6","0.00","0.00","174"
"08:14:59","67.6","55.1","64.3","30.05","94","2.1","4.8","0.00","0.00","281"
"08:19:56","68.2","55.3","63.4","30.05","77","1.4","4.8","0.00","0.00","262"
"08:24:57","68.7","55.3","62.4","30.05","68","1.7","3.6","0.00","0.00","262"
"08:29:58","69","55.2","61.5","30.05","114","2.7","8.4","0.00","0.00","139"
"08:34:59","69","55.2","61.6","30.05","106","1.2","6","0.00","0.00","95"
"08:39:56","69","55.1","61.4","30.05","118","2.7","5.8","0.00","0.00","204"
"08:44:58","68.9","55","61","30.05","86","2.4","4.8","0.00","0.00","204"
"08:49:59","69.1","55.4","61.6","30.05","96","1.7","3.6","0.00","0.00","169"
"08:54:56","69.4","55.9","62.2","30.05","41","1.7","3.6","0.00","0.00","401"
"08:59:57","69.7","55.5","60.7","30.05","14","1.5","3.6","0.00","0.00","415"
"09:04:59","70","55.7","60.6","30.05","22","1.3","3.6","0.00","0.00","330"
"09:09:58","70.3","56","60.7","30.05","6","1.2","3.6","0.00","0.00","146"
"09:14:56","70.4","55.9","60.2","30.06","38","1.6","3.6","0.00","0.00","206"
"09:19:57","70.2","55.7","60.1","30.06","81","2.2","6","0.00","0.00","158"
"09:24:59","70.1","55.9","60.8","30.06","49","1.8","4.8","0.00","0.00","185"
"09:29:56","70.2","56","60.8","30.06","22","1.8","3.6","0.00","0.00","243"
"09:34:57","70.4","56.4","61.3","30.06","19","1.8","3.6","0.00","0.00","236"
"09:39:58","70.4","56.3","61","30.06","50","1.8","6","0.00","0.00","216"
"09:44:55","70.4","56.4","61.1","30.06","71","1.8","3.6","0.00","0.00","422"
"09:49:56","70.7","57","61.9","30.05","306","1.1","3.6","0.00","0.00","422"
"09:54:58","71.2","57.1","61","30.05","90","2.3","6","0.00","0.00","295"
"09:59:59","71.4","57","60.5","30.06","107","2.6","4.8","0.00","0.00","306"
"10:04:57","71.7","57.5","60.9","30.06","55","1.6","4.8","0.00","0.00","279"
"10:09:57","72","57.9","61.2","30.06","67","1.9","4.8","0.00","0.00","543"
"10:14:57","72.1","57.5","60.1","30.06","289","0.9","3.6","0.00","0.00","543"
"10:19:59","72.2","57.6","60.1","30.06","335","2.5","6","0.00","0.00","401"
"10:24:56","71.7","56.8","59.4","30.06","99","2.6","4.8","0.00","0.00","401"
"10:29:57","71.5","57.6","61.6","30.06","86","1.1","3.6","0.00","0.00","396"
"10:34:58","71.8","57.7","61.2","30.06","335","1.7","4.8","0.00","0.00","371"
"10:39:59","72.4","57.9","60.6","30.06","85","2.3","7.2","0.00","0.00","353"
"10:44:57","72.1","57.5","60.1","30.06","108","3.3","10.8","0.00","0.00","469"
"10:49:58","72.4","58","60.6","30.06","116","1.7","4.6","0.00","0.00","469"
"10:54:59","73.2","58.6","60.3","30.06","81","2.3","4.8","0.00","0.00","353"
"10:59:56","73.3","58.3","59.5","30.06","124","3.2","12","0.00","0.00","712"
"11:04:59","73.5","59.1","60.8","30.06","89","2.2","11.5","0.00","0.00","738"
"11:09:57","73.6","58.9","60","30.06","88","2.9","5.8","0.00","0.00","687"
"11:14:59","73.1","58","59.2","30.06","124","3.4","8.4","0.00","0.00","570"
"11:19:56","72.8","58.6","61","30.06","85","1.5","3.6","0.00","0.00","568"
"11:24:57","73.1","58.6","60.5","30.06","82","2.5","4.8","0.00","0.00","591"
"11:29:58","73.3","58.5","60.1","30.06","99","2.9","7.2","0.00","0.00","657"
"11:34:56","73.9","59.5","60.8","30.06","113","1.9","6","0.00","0.00","563"
"11:39:57","74.3","59.2","59.4","30.06","127","2.5","7.2","0.00","0.00","519"
"11:44:59","73.7","58.8","59.5","30.06","117","2.3","6.9","0.00","0.00","494"
"11:49:59","73.4","58.5","59.7","30.06","78","1.9","3.6","0.00","0.00","308"
"11:54:57","73.2","58.4","59.8","30.06","104","2.4","4.8","0.00","0.00","330"
"11:59:56","73","58.2","59.8","30.06","125","2.7","7.2","0.00","0.00","429"
"12:04:59","73.8","59.6","61.1","30.06","110","2.1","5.8","0.00","0.00","563"
"12:09:57","74.5","59.5","59.6","30.06","77","1.3","4.8","0.00","0.00","457"
"12:14:59","74.4","59.6","60.1","30.06","105","2.7","6","0.00","0.00","531"
"12:19:56","73.9","58.5","58.6","30.06","125","2.8","7.2","0.00","0.00","403"
"12:24:57","73.9","59.3","60.3","30.06","113","1.8","6.9","0.00","0.00","404"
"12:29:58","74.1","58.8","59","30.06","105","2.2","4.8","0.00","0.00","396"
"12:34:56","74","58.7","58.7","30.06","113","2.4","8.4","0.00","0.00","524"
"12:39:57","74.3","58.9","58.7","30.06","84","2.6","4.8","0.00","0.00","577"
"12:44:59","74.6","59.3","59","30.06","95","2.4","4.8","0.00","0.00","591"
"12:49:56","74.9","59.4","58.5","30.06","85","3.1","4.8","0.00","0.00","652"
"12:54:57","75.1","59.6","58.7","30.06","110","2.5","4.8","0.00","0.00","661"
"12:59:58","75.5","58.8","56.3","30.06","77","2.5","7.2","0.00","0.00","635"
"13:04:57","75.1","59.7","58.8","30.06","118","2.4","8.4","0.00","0.00","606"
"13:09:59","75.2","59","57.1","30.06","95","3","7.2","0.00","0.00","478"
"13:14:58","74.7","59.3","58.7","30.06","74","2.2","4.8","0.00","0.00","779"
"13:19:58","75.7","60.1","58.6","30.06","113","2.7","8.4","0.00","0.00","821"
"13:24:56","76.4","59.5","55.9","30.06","114","2.6","5.8","0.00","0.00","874"
"13:29:57","75.8","59.3","56.6","30.06","98","3.1","8.4","0.00","0.00","596"
"13:34:58","75.1","58.6","56.7","30.06","80","3","5.8","0.00","0.00","571"
"13:39:56","75.5","59.8","58.2","30.06","99","3","8.4","0.00","0.00","571"
"13:44:57","75.2","59.4","57.9","30.06","85","2.8","4.8","0.00","0.00","490"
"13:49:58","75.2","59.1","57.4","30.06","101","2.9","6","0.00","0.00","452"
"13:54:55","75","59.6","58.8","30.06","83","2","9.6","0.00","0.00","406"
"13:59:57","74.7","58.9","57.9","30.06","118","3.5","9.2","0.00","0.00","327"
"14:04:59","74.7","59.4","59","30.05","117","2.6","7.2","0.00","0.00","406"
"14:09:58","75","59.6","58.9","30.05","85","2.2","4.8","0.00","0.00","628"
"14:14:56","75.7","60.1","58.3","30.05","117","3.7","7.2","0.00","0.00","689"
"14:19:57","75.5","59.1","56.9","30.05","108","3.3","6","0.00","0.00","765"
"14:24:58","76.3","60.7","58.5","30.05","96","2.7","8.4","0.00","0.00","796"
"14:29:59","76.8","60.2","56.8","30.05","126","3.2","8.1","0.00","0.00","763"
"14:34:56","76.2","59.8","56.9","30.05","124","3.3","8.4","0.00","0.00","731"
"14:39:57","77","61.2","58.2","30.05","139","1.8","4.8","0.00","0.00","731"
"14:44:59","77.6","61.3","57.2","30.05","106","3","8.4","0.00","0.00","717"
"14:49:56","77.4","60.4","55.7","30.05","98","3.6","8.4","0.00","0.00","686"
"14:54:57","76.7","60","56.3","30.05","112","3.6","8.4","0.00","0.00","714"
"14:59:58","77.2","60.6","56.6","30.05","116","2.1","4.8","0.00","0.00","689"
"15:04:56","77.4","60.2","55.5","30.04","128","3.3","8.4","0.00","0.00","664"
"15:09:59","77.4","60.1","55.2","30.04","106","3","6","0.00","0.00","673"
"15:14:57","77","60.1","56","30.04","114","2.7","4.8","0.00","0.00","666"
"15:19:58","77.2","60.1","55.6","30.04","114","3.3","8.4","0.00","0.00","647"
"15:24:59","77","60.1","56.2","30.04","92","2.7","8.4","0.00","0.00","610"
"15:29:56","76.9","59.7","55.5","30.04","99","3.5","10.8","0.00","0.00","615"
"15:34:57","77","59.9","55.7","30.04","125","3.8","8.4","0.00","0.00","612"
"15:39:58","77.8","61","56.4","30.04","116","3","7.2","0.00","0.00","631"
"15:44:56","77.9","60.5","55.2","30.04","156","3.5","7.2","0.00","0.00","610"
"15:49:57","77.7","60.4","55.5","30.04","150","3.2","10.8","0.00","0.00","599"
"15:54:59","77.6","60.1","54.8","30.04","100","3.2","8.4","0.00","0.00","603"
"15:59:56","77.3","59.5","54.2","30.04","103","3.5","7.2","0.00","0.00","573"
"16:04:58","77.4","60.1","55.4","30.03","137","2.9","12","0.00","0.00","571"
"16:09:57","77.2","59.9","55.1","30.03","104","3.2","7.2","0.00","0.00","538"
"16:14:59","76.8","59.5","55.1","30.03","108","3.8","7.2","0.00","0.00","533"
"16:19:56","76.8","59.4","55","30.03","102","3.1","9.6","0.00","0.00","541"
"16:24:57","76.7","59.5","55.5","30.03","119","4.1","9.6","0.00","0.00","504"
"16:29:58","76.9","59.9","55.7","30.04","148","3.9","10.8","0.00","0.00","490"
"16:34:59","76.9","59.4","54.8","30.04","114","4","13.2","0.00","0.00","482"
"16:39:56","76.5","59.4","55.6","30.04","98","2.8","6.9","0.00","0.00","466"
"16:44:58","76.5","59.6","56.1","30.04","118","2.8","8.4","0.00","0.00","403"
"16:49:58","76.8","60","56.1","30.03","123","3.3","10.8","0.00","0.00","388"
"16:54:56","76.8","59.6","55.4","30.03","124","3.6","10.8","0.00","0.00","355"
"16:59:57","76.1","59.7","56.9","30.03","103","3.6","13.2","0.00","0.00","353"
"17:04:59","75.3","59.2","57.4","30.03","100","3.5","12","0.00","0.00","352"
"17:09:59","75.1","59.3","57.9","30.03","118","4.5","12","0.00","0.00","339"
"17:14:58","74.8","59","58","30.03","105","4.5","10.4","0.00","0.00","329"
"17:19:59","74.1","58.5","58.2","30.03","99","5","10.8","0.00","0.00","323"
"17:24:56","74","59","59.5","30.03","116","2.9","10.8","0.00","0.00","320"
"17:29:57","74.1","58.6","58.5","30.04","104","4.4","12","0.00","0.00","311"
"17:34:59","73.4","58.2","59","30.04","83","3.4","8.4","0.00","0.00","301"
"17:39:56","72.5","57.8","60","30.04","83","4.1","6","0.00","0.00","297"
"17:44:58","72.1","57.8","60.9","30.04","109","3.7","7.2","0.00","0.00","276"
"17:49:59","71.8","57.3","60.3","30.04","94","3.6","10.8","0.00","0.00","179"
"17:54:56","71.3","57.1","60.8","30.04","97","4.3","8.4","0.00","0.00","139"
"17:59:57","71.2","57.1","61","30.04","108","4.3","9.6","0.00","0.00","169"
"18:04:56","71.1","57","61.2","30.03","118","4.2","9.6","0.00","0.00","190"
"18:09:59","70.9","57","61.5","30.03","117","3.8","17.3","0.00","0.00","178"
"18:14:57","70.8","57","61.8","30.04","112","3.1","12","0.00","0.00","158"
"18:19:58","70.4","56.8","62","30.04","103","3.6","11.5","0.00","0.00","74"
"18:24:59","69.8","56.3","62.5","30.04","93","3.6","9.6","0.00","0.00","114"
"18:29:56","69.3","56.2","63.2","30.05","102","4.1","9.6","0.00","0.00","114"
"18:34:57","69","56.2","63.7","30.05","120","3.2","7.2","0.00","0.00","76"
"18:39:59","68.9","56.2","64","30.05","121","2.7","8.4","0.00","0.00","63"
"18:44:57","68.7","56.1","64.1","30.06","119","3.2","7.2","0.00","0.00","63"
"18:49:58","68.4","55.7","64","30.06","125","3.5","8.4","0.00","0.00","54"
"18:54:59","68.2","55.9","65","30.06","143","2","6","0.00","0.00","53"
"18:59:56","68","55.8","65","30.07","125","2.8","10.8","0.00","0.00","40"
"19:04:58","67.7","55.5","65","30.07","120","3.8","12","0.00","0.00","37"
"19:09:57","67.4","55.3","65.2","30.07","122","2.5","5.8","0.00","0.00","37"
"19:14:59","66.9","55","65.5","30.07","105","2.5","4.8","0.00","0.00","32"
"19:19:56","66.6","54.9","66","30.07","114","2.4","7.2","0.00","0.00","26"
"19:24:57","66.2","54.5","66","30.07","112","2.6","5.8","0.00","0.00","23"
"19:29:58","65.9","54.4","66.6","30.07","134","2.4","4.8","0.00","0.00","19"
"19:34:56","65.6","54.3","67","30.07","127","2.5","7.2","0.00","0.00","18"
"19:39:58","65.3","54.1","67","30.07","132","2.2","6","0.00","0.00","14"
"19:44:56","65","53.8","67","30.08","119","2.8","6","0.00","0.00","11"
"19:49:58","64.7","53.5","67","30.08","115","3.7","13.2","0.00","0.00","9"
"19:54:56","64.5","53.3","67","30.08","117","3.1","8.4","0.00","0.00","5"
"19:59:58","64.4","53.2","67","30.09","129","3.3","9.6","0.00","0.00","0"
"20:04:57","64.3","53.2","67.3","30.09","124","2.7","9.2","0.00","0.00","0"
"20:09:59","64.2","53.4","68","30.09","104","2.2","4.8","0.00","0.00","0"
"20:14:58","64.1","53.3","68","30.09","122","3.2","7.2","0.00","0.00","0"
"20:19:56","63.8","53","68","30.09","122","3.1","7.2","0.00","0.00","0"
"20:24:58","63.7","52.9","68","30.09","107","2.4","6","0.00","0.00","0"
"20:29:59","63.5","53","68.8","30.10","142","2.1","6","0.00","0.00","0"
"20:34:57","63.3","53","69","30.10","134","2","4.8","0.00","0.00","0"
"20:39:59","63.1","52.8","69","30.10","126","2.4","6","0.00","0.00","0"
"20:44:58","62.8","52.5","69","30.12","126","2","4.8","0.00","0.00","0"
"20:49:59","62.6","52.3","69","30.12","112","3.3","8.4","0.00","0.00","0"
"20:54:57","62.4","52.4","69.7","30.12","135","2.3","4.8","0.00","0.00","0"
"20:59:58","62.2","52.3","70","30.13","126","2.4","4.8","0.00","0.00","0"
"21:04:56","62.1","52.2","70","30.13","124","2.3","6","0.00","0.00","0"
"21:09:59","61.9","52.1","70.3","30.13","103","2.4","4.8","0.00","0.00","0"
"21:14:58","61.6","52","70.7","30.13","119","2.1","4.8","0.00","0.00","0"
"21:19:56","61.4","51.9","70.9","30.13","118","2.4","4.8","0.00","0.00","0"
"21:24:58","61.2","51.7","71","30.13","103","2.5","4.8","0.00","0.00","0"
"21:29:59","61","51.8","71.7","30.14","109","2.5","7.2","0.00","0.00","0"
"21:34:57","60.9","51.8","72","30.14","123","2.3","5.8","0.00","0.00","0"
"21:39:56","60.7","51.6","72","30.14","129","1.8","4.8","0.00","0.00","0"
"21:44:58","60.6","51.5","72","30.14","122","2.4","4.8","0.00","0.00","0"
"21:49:56","60.5","51.6","72.5","30.14","115","2.5","4.8","0.00","0.00","0"
"21:54:58","60.4","51.4","72.4","30.14","134","2.4","8.4","0.00","0.00","0"
"21:59:56","60.2","51.5","73","30.17","133","1.6","4.8","0.00","0.00","0"
"22:04:59","60.1","51.4","73","30.17","122","1.7","3.6","0.00","0.00","0"
"22:09:58","60","51.4","73.2","30.17","128","0.8","3.6","0.00","0.00","0"
"22:14:56","60","51.6","73.8","30.17","128","1.2","3.6","0.00","0.00","0"
"22:19:59","59.9","51.6","74","30.17","128","1.4","3.6","0.00","0.00","0"
"22:24:58","59.8","51.5","74","30.17","135","2","6","0.00","0.00","0"
"22:29:56","59.6","51.3","74","30.17","136","1.7","3.6","0.00","0.00","0"
"22:34:59","59.5","51.2","74","30.16","125","2.6","8.4","0.00","0.00","0"
"22:39:58","59.2","50.9","74","30.16","111","2.9","8.1","0.00","0.00","0"
"22:44:58","59","50.7","74","30.16","126","2","6","0.00","0.00","0"
"22:49:56","58.8","50.8","74.7","30.16","132","1.4","3.6","0.00","0.00","0"
"22:54:58","58.7","50.7","74.8","30.16","104","1.3","3.6","0.00","0.00","0"
"22:59:56","58.5","50.6","75","30.16","111","2.2","4.8","0.00","0.00","0"
"23:04:56","58.3","50.4","75.2","30.15","76","2.4","4.8","0.00","0.00","0"
"23:09:59","58","50.9","77.3","30.15","75","1.3","3.6","0.00","0.00","0"
"23:14:58","57.7","51.2","79","30.16","72","1.2","3.6","0.00","0.00","0"
"23:19:59","57.4","51","79.2","30.16","73","1.7","3.6","0.00","0.00","0"
"23:24:58","57.2","50.9","79.5","30.16","104","2","4.8","0.00","0.00","0"
"23:29:43","57","50.6","79.2","30.16","120","2.3","8.4","0.00","0.00","0"
"23:34:57","56.7","50.3","79","30.16","105","2.1","4.8","0.00","0.00","0"
"23:39:59","56.6","50.2","79","30.16","109","2.3","4.8","0.00","0.00","0"
"23:44:58","56.5","50.4","79.9","30.16","118","2.8","6","0.00","0.00","0"
"23:49:59","56.2","50.3","80.9","30.16","123","2.7","6","0.00","0.00","0"
"23:54:58","55.9","50.2","81","30.16","125","2.2","6","0.00","0.00","0"
